GW0035 Weather Reports


time (UTC)temp
C
wind
direction
speed
KPH
gust
KPH
rain 1hr
cm
rain 24hr
cm
rain mn
cm
humidity
%
barometer
mb
20260509011534 26 135 1.6 1.6 0.00 0.00 0.03 99 995.3
20260509011034 25 135 1.6 1.6 0.00 0.00 0.03 99 994.9
20260509010534 25 135 1.6 1.6 0.00 0.00 0.03 99 994.9
20260509005534 25 113 0.0 0.0 0.00 0.00 0.03 99 994.9
20260508125858 31 270 1.6 1.6 0.00 0.00 0.00 81 992.6
20260508124858 33 270 0.0 0.0 0.00 0.00 0.00 75 991.9
20260508123858 35 225 0.0 0.0 0.00 0.00 0.00 66 991.2
20260508123358 35 203 0.0 0.0 0.00 0.00 0.00 65 991.2
20260508122358 36 113 0.0 0.0 0.00 0.00 0.00 63 991.2
20260508121358 36 90 0.0 0.0 0.00 0.00 0.00 61 991.2
20260508115858 37 68 1.6 1.6 0.00 0.00 0.00 59 990.9
20260508114858 37 113 1.6 1.6 0.00 0.00 0.00 59 990.9
20260508113858 37 158 4.8 4.8 0.00 0.00 0.00 60 990.5
20260508072609 38 135 0.0 0.0 0.00 0.00 0.00 63 993.6
20260508071609 38 90 0.0 0.0 0.00 0.00 0.00 62 993.9
20260508065610 37 113 1.6 1.6 0.00 0.00 0.00 65 994.2
20260508065109 37 158 1.6 1.6 0.00 0.00 0.00 66 994.2
20260508064109 38 113 0.0 0.0 0.00 0.00 0.00 64 994.6
20260508042153 33 113 1.6 1.6 0.00 0.00 0.00 76 995.9
20260508041653 33 45 1.6 1.6 0.00 0.00 0.00 76 995.9
20260508040153 33 90 1.6 1.6 0.00 0.00 0.00 77 995.9
20260508035654 33 23 1.6 1.6 0.00 0.00 0.00 78 995.9
20260508035153 33 45 1.6 1.6 0.00 0.00 0.00 79 995.9